Back to catalog

SL-16 DEB

AliveLEO
NORAD 22804·DEBRIS·🇷🇺 Russia

Launched Sep 16, 1993 from Baikonur Cosmodrome

Loading…

Next Passes (next 24 hours)

TLE

FreshSource: Space-Track

Epoch: Sep 14, 2026, 06:39 UTC

1 22804U 93059C   26257.27776468  .00000085  00000-0  12054-3 0  9999
2 22804  70.9767  10.3005 0208951  13.6170  10.5416 13.72085941651005

Track SL-16 DEB in real time with AllMySat

Download on the App Store